CW0406 Weather Reports


Display with metric or nautical units.
time (UTC)temp
F
wind
direction
speed
MPH
gust
MPH
rain 1hr
in
rain 24hr
in
rain mn
in
humidity
%
barometer
mb
20210803094138 54 354 0.0 6.0 0.02 8.39 0.04 94 1022.9
20210803093620 54 354 0.0 6.0 0.02 8.39 0.04 94 1023.1
20210803093121 54 358 0.0 0.0 0.02 8.39 0.04 92 1022.9
20210803092558 54 358 0.0 0.0 0.02 8.39 0.04 92 1023.1
20210803092059 54 358 0.0 0.0 0.02 8.39 0.04 92 1023.1
20210803091552 54 358 0.0 7.0 0.00 8.39 0.02 92 1022.9
20210803091049 54 358 0.0 133.0 0.00 8.39 0.02 92 1022.1
20210803090549 54 40 0.0 133.0 0.00 8.39 0.02 92 1022.8
20210803090048 55 264 0.0 0.0 0.00 8.39 0.02 91 1023.2
20210803085529 55 264 0.0 0.0 0.00 8.39 0.02 91 1023.2
20210803085011 55 264 0.0 0.0 0.00 8.39 0.02 90 1023.2
20210803084508 56 264 0.0 3.0 0.00 8.39 0.02 89 1023.1
20210803083953 56 264 0.0 3.0 0.00 8.39 0.02 89 1023.1
20210803083453 56 264 0.0 4.0 0.00 8.39 0.02 89 1023.1
20210803082946 56 194 0.0 6.0 0.00 8.39 0.02 89 1022.9
20210803082431 56 194 0.0 6.0 0.00 8.39 0.02 89 1022.9
20210803081927 56 208 0.0 8.0 0.00 8.39 0.02 88 1022.9
20210803081425 56 43 0.0 8.0 0.00 8.39 0.02 87 1022.8
20210803080924 56 30 5.0 6.0 0.00 8.39 0.00 87 1022.8
20210803080425 56 36 5.0 9.0 0.00 8.39 0.00 87 1022.8
20210803075921 56 30 4.0 9.0 0.00 8.39 0.00 87 1022.7
20210803075421 56 71 2.0 9.0 0.00 8.39 0.00 87 1022.7
20210803074920 56 142 0.0 0.0 0.00 8.39 0.00 88 1022.7
20210803074419 56 142 0.0 0.0 0.00 8.39 0.00 88 1022.7
20210803073913 56 142 0.0 0.0 0.00 8.39 0.00 88 1022.7
20210803073411 57 142 0.0 0.0 0.00 8.39 0.00 88 1022.8
20210803072907 57 142 0.0 0.0 0.00 8.64 0.00 87 1022.6
20210803072402 58 142 0.0 0.0 0.00 8.64 0.00 87 1022.5
20210803071901 58 142 0.0 0.0 0.00 8.64 0.00 87 1022.5
20210803071354 58 142 0.0 0.0 0.00 8.64 0.00 86 1022.6
20210803070853 58 142 0.0 0.0 0.00 8.64 0.00 86 1022.6
20210803070355 58 142 0.0 0.0 0.00 8.64 0.00 86 1022.5
20210803065850 58 142 0.0 0.0 0.00 8.64 0.00 87 1022.4
20210803065328 58 142 0.0 0.0 0.00 8.64 0.00 86 1022.4
20210803064807 58 142 0.0 0.0 0.00 8.64 0.00 85 1022.2
20210803064307 58 142 0.0 0.0 0.00 8.64 0.00 85 1022.2
20210803063754 58 142 0.0 4.0 0.00 8.64 0.00 86 1022.1
20210803063241 58 142 0.0 4.0 0.00 8.65 0.00 86 1022.1
20210803062740 58 142 0.0 0.0 0.00 8.65 0.00 86 1022.0
20210803062219 59 142 0.0 0.0 0.01 8.65 0.00 85 1022.0
20210803061707 59 142 0.0 0.0 0.01 8.65 0.00 84 1022.0
20210803061158 59 142 0.0 0.0 0.01 8.65 0.00 83 1022.1
20210803060656 59 142 0.0 0.0 0.01 8.65 0.00 83 1022.2
20210803060154 60 142 0.0 0.0 0.01 8.65 0.00 84 1022.1
20210803055637 60 142 0.0 4.0 0.01 8.65 2.53 83 1022.1
20210803055137 60 142 0.0 4.0 0.01 8.65 2.53 83 1022.0
20210803054616 60 142 0.0 0.0 0.01 8.77 2.53 84 1022.0
20210803054113 60 142 0.0 0.0 0.01 8.77 2.53 83 1022.1
20210803053611 60 142 0.0 0.0 0.01 8.77 2.53 82 1022.0
20210803053110 61 142 0.0 16.0 0.01 1.28 2.53 81 1022.0
20210803052602 62 142 0.0 16.0 0.01 1.28 2.53 82 1022.1
20210803052100 62 142 0.0 0.0 0.00 1.28 2.52 82 1022.1
20210803051551 61 142 0.0 0.0 0.00 1.28 2.52 81 1022.0
20210803051046 61 142 0.0 0.0 0.00 1.28 2.52 79 1022.1
20210803050537 62 142 0.0 0.0 0.00 1.28 2.52 80 1022.1
20210803050027 62 142 0.0 0.0 0.00 1.28 2.52 79 1022.1
20210803045524 63 142 0.0 0.0 0.00 1.28 2.52 79 1022.0
20210803045013 63 142 0.0 0.0 0.00 1.28 2.52 78 1022.0
20210803044451 63 142 0.0 127.0 0.00 1.28 2.52 78 1021.9
20210803043934 63 142 0.0 127.0 0.00 1.28 2.52 77 1021.9
20210803043431 63 142 0.0 0.0 0.00 1.28 2.52 77 1021.9
20210803042919 64 142 0.0 0.0 0.00 1.28 2.52 76 1021.7
20210803042421 64 142 0.0 0.0 0.17 1.28 2.52 75 1021.5
20210803041909 65 142 0.0 0.0 0.17 1.28 2.52 77 1021.5
20210803041404 64 142 0.0 0.0 0.17 1.28 2.52 76 1021.4
20210803040901 64 142 0.0 0.0 0.17 1.28 2.52 74 1021.4
20210803040334 64 142 0.0 0.0 0.17 1.28 2.52 73 1021.4
20210803035813 65 142 0.0 0.0 0.17 1.28 2.52 72 1021.3
20210803035306 65 142 0.0 0.0 0.17 1.28 2.52 72 1021.3
20210803034748 66 142 0.0 0.0 0.17 1.28 2.52 72 1021.2
20210803034238 66 142 0.0 0.0 0.17 1.28 2.52 72 1021.1
20210803033731 67 142 0.0 0.0 0.17 1.28 2.52 71 1020.9
20210803033229 67 142 0.0 0.0 0.17 1.28 2.52 69 1020.9
20210803032725 68 142 0.0 0.0 0.17 1.28 2.52 68 1020.8
20210803032216 69 142 0.0 0.0 0.00 1.28 2.35 66 1020.6
20210803031715 69 142 0.0 0.0 0.00 1.28 2.35 67 1020.5
20210803031155 70 142 0.0 0.0 0.00 1.28 2.35 66 1020.5
20210803030656 70 142 0.0 0.0 0.00 1.28 2.35 65 1020.4
20210803030137 71 142 0.0 0.0 0.00 1.28 2.35 65 1020.2
20210803025638 71 142 0.0 0.0 0.00 1.28 2.35 63 1020.1
20210803025125 72 142 0.0 2.0 0.00 1.28 2.35 61 1020.1
20210803024614 72 142 0.0 2.0 0.00 1.28 2.35 59 1020.0
20210803024105 73 142 0.0 2.0 0.00 1.28 2.35 58 1020.0
20210803023607 74 142 0.0 0.0 0.00 1.28 2.33 58 1020.0
20210803023105 74 142 0.0 0.0 0.00 1.28 2.33 56 1019.9
20210803022558 75 142 0.0 5.0 0.00 1.28 2.33 53 1019.9
20210803022047 76 7 0.0 6.0 0.64 1.29 2.33 52 1019.9
20210803021548 76 142 0.0 6.0 0.64 1.29 2.33 48 1019.8
20210803021044 78 225 0.0 0.0 0.64 1.29 2.33 46 1019.7
20210803020541 79 225 0.0 8.0 0.64 1.29 2.33 43 1019.7
20210803020034 80 225 0.0 8.0 0.64 1.29 2.33 40 1019.8
20210803015522 80 225 0.0 8.0 0.64 1.29 2.33 37 1019.8
20210803015006 82 313 0.0 9.0 0.64 2.93 2.33 37 1019.8
20210803014500 82 313 0.0 11.0 0.64 2.93 2.33 33 1019.8
20210803013950 83 139 4.0 11.0 0.64 2.93 2.32 35 1019.8
20210803013441 83 299 4.0 11.0 0.64 2.93 2.32 33 1019.7
20210803012942 83 129 1.0 7.0 0.64 2.93 2.32 32 1019.8
20210803012438 83 225 1.0 7.0 0.81 2.93 2.32 32 1019.7
20210803011937 83 243 4.0 10.0 0.17 2.93 2.32 34 1019.5
20210803011438 83 229 2.0 11.0 0.17 2.93 2.32 35 1019.5
20210803010935 83 312 2.0 11.0 0.17 2.93 2.32 32 1019.5
20210803010432 83 285 5.0 11.0 0.17 2.93 2.32 32 1019.7
20210803005933 84 241 5.0 9.0 0.17 2.93 2.32 31 1019.5
20210803005429 84 205 2.0 10.0 0.17 2.93 2.32 34 1019.4
20210803004932 84 209 0.0 10.0 0.17 2.93 2.32 33 1019.4
20210803004427 84 18 6.0 10.0 0.17 2.93 2.32 33 1019.4
20210803003926 84 182 6.0 14.0 0.17 2.93 2.32 33 1019.4
20210803003423 83 264 0.0 14.0 0.17 2.93 2.32 33 1019.4
20210803002925 83 247 5.0 159.0 0.17 3.11 2.32 35 1019.4
20210803002422 83 324 3.0 159.0 0.00 3.11 2.15 33 1019.4
20210803001921 83 291 2.0 11.0 0.00 3.11 1.98 32 1019.4
20210803001419 84 250 6.0 17.0 0.00 3.11 1.98 34 1019.4
20210803000915 83 237 0.0 17.0 0.00 3.11 1.98 35 1019.5
20210803000412 83 233 6.0 17.0 0.00 3.11 1.98 35 1019.5
20210802235911 83 16 5.0 17.0 0.00 3.11 1.98 33 1019.4
20210802235410 83 341 7.0 17.0 0.00 3.11 1.98 35 1019.5
20210802234909 83 348 5.0 10.0 0.00 3.11 1.98 34 1019.4
20210802234408 83 14 3.0 13.0 0.00 3.11 1.98 34 1019.3
20210802233907 83 292 5.0 14.0 0.00 3.11 1.98 35 1019.4
20210802233407 82 296 5.0 14.0 0.00 3.11 1.98 37 1019.4
20210802232906 82 341 6.0 12.0 0.00 3.11 1.98 37 1019.4
20210802232408 81 293 2.0 15.0 0.64 3.11 1.98 37 1019.4
20210802231856 81 315 7.0 15.0 0.64 3.11 1.98 37 1019.4
20210802231355 81 40 6.0 15.0 0.64 3.11 1.98 37 1019.3
20210802230856 80 261 2.0 15.0 0.64 3.11 1.98 38 1019.3
20210802230339 80 14 5.0 14.0 0.64 3.11 1.98 41 1019.3
20210802225839 79 28 2.0 14.0 0.64 3.11 1.98 41 1019.4
20210802225339 79 237 2.0 12.0 0.64 3.11 1.98 43 1019.5
20210802224837 79 187 4.0 12.0 0.64 3.11 1.98 42 1019.4
20210802224336 79 317 9.0 12.0 0.64 3.11 1.81 43 1019.5
20210802223838 79 351 4.0 12.0 0.64 3.11 1.81 42 1019.5
20210802223336 79 70 5.0 17.0 0.64 3.11 1.81 42 1019.5
20210802222832 79 99 5.0 17.0 0.17 3.10 1.81 43 1019.7
20210802222330 80 344 7.0 17.0 0.17 3.10 1.65 43 1019.7
20210802221830 80 25 1.0 15.0 0.17 3.10 1.65 45 1019.7
20210802221331 80 222 10.0 15.0 0.17 3.10 1.65 47 1019.7
20210802220830 79 316 1.0 14.0 0.17 3.10 1.65 47 1019.8
20210802220328 79 225 9.0 14.0 0.17 3.10 1.65 47 1019.8
20210802215826 79 288 6.0 19.0 0.17 3.10 1.65 47 1019.9
20210802215326 79 260 5.0 19.0 0.17 3.10 1.65 48 1019.9
20210802214825 79 182 9.0 14.0 0.17 3.10 1.65 49 1019.9
20210802214321 79 278 6.0 13.0 0.17 3.10 1.65 48 1020.0
20210802213821 80 358 4.0 14.0 0.17 3.10 1.65 48 1020.0
20210802213321 80 217 7.0 14.0 8.20 3.10 1.65 48 1020.1
20210802212820 79 277 2.0 15.0 8.19 3.10 1.31 48 1020.1
20210802212320 79 105 8.0 15.0 8.19 3.10 1.31 48 1020.0
20210802211815 78 30 4.0 18.0 8.21 3.10 1.31 47 1020.1
20210802211316 79 358 10.0 19.0 8.21 3.10 1.30 47 1020.4
20210802210814 79 254 8.0 19.0 8.21 3.10 1.30 49 1020.2
20210802210312 78 293 4.0 17.0 8.21 3.10 1.28 51 1020.4
20210802205813 78 15 10.0 17.0 8.21 3.10 1.28 47 1020.5
20210802205311 78 300 6.0 16.0 8.21 3.10 1.28 49 1020.4
20210802204812 78 316 8.0 18.0 8.21 3.10 1.28 47 1020.5
20210802204311 79 333 7.0 18.0 8.21 3.10 1.28 48 1020.6
20210802203807 80 45 6.0 46.0 8.21 3.10 1.28 48 1020.6
20210802203300 80 240 8.0 46.0 0.18 2.28 1.28 50 1020.5
20210802202803 80 195 7.0 14.0 0.17 2.28 1.27 51 1020.5
20210802202258 79 281 9.0 14.0 0.17 2.28 1.27 53 1020.5
20210802201800 78 241 6.0 16.0 0.00 2.28 0.93 52 1020.6
20210802201255 78 307 5.0 16.0 0.00 2.28 0.93 52 1020.6
20210802200751 77 241 0.0 13.0 0.00 2.29 0.93 50 1020.7
20210802200250 78 355 8.0 13.0 0.00 2.29 0.93 50 1020.9
20210802195750 78 338 5.0 13.0 0.00 2.29 0.59 50 1020.9
20210802195248 78 18 0.0 13.0 0.00 2.29 0.59 49 1020.9
20210802194746 78 286 9.0 14.0 0.00 2.29 0.59 52 1020.9
20210802194243 77 202 7.0 14.0 0.00 2.29 0.59 52 1021.1
20210802193744 77 299 6.0 10.0 0.00 2.29 0.59 52 1020.9
20210802193241 76 305 2.0 9.0 0.00 2.29 0.59 53 1020.9
20210802192741 76 12 2.0 13.0 0.00 2.29 0.59 51 1021.1
20210802192240 76 119 5.0 13.0 0.00 2.29 0.59 54 1021.2
20210802191739 75 265 6.0 11.0 0.00 2.29 0.59 53 1021.3
20210802191238 75 35 5.0 11.0 0.00 2.29 0.59 55 1021.3
20210802190738 75 324 5.0 13.0 0.00 2.29 0.59 55 1021.5
20210802190230 75 23 4.0 13.0 0.00 2.29 0.59 54 1021.5
20210802185730 75 358 6.0 11.0 0.00 2.29 0.59 54 1021.5
20210802185229 75 267 5.0 17.0 0.00 2.29 0.59 56 1021.7
20210802184728 75 344 7.0 17.0 0.00 2.29 0.59 54 1021.7
20210802184229 75 195 0.0 10.0 0.00 2.29 0.59 56 1021.8
20210802183715 74 310 0.0 10.0 0.00 2.29 0.59 59 1021.8
20210802183213 74 36 6.0 37.0 0.00 2.29 0.57 57 1021.8
20210802182713 73 16 1.0 37.0 0.00 2.29 0.57 59 1021.9
20210802182208 73 300 8.0 12.0 0.00 2.29 0.57 60 1021.9
20210802181706 72 352 7.0 11.0 0.00 2.29 0.57 62 1021.9
20210802181206 72 68 0.0 8.0 0.00 2.29 0.57 65 1022.0
20210802180701 72 251 0.0 6.0 0.00 2.29 0.57 69 1022.0
20210802180201 72 168 0.0 6.0 0.00 2.29 0.57 71 1022.0
20210802175700 71 247 4.0 7.0 0.00 2.29 0.57 74 1022.0
20210802175158 71 165 3.0 8.0 0.00 2.29 0.57 74 1022.0
20210802174656 71 184 3.0 9.0 0.00 2.29 0.57 74 1022.0
20210802174154 70 196 4.0 9.0 0.00 2.29 0.57 75 1022.0
20210802173652 70 253 6.0 8.0 0.00 2.29 0.57 75 1022.1
20210802173152 70 216 0.0 7.0 0.00 2.29 0.57 75 1022.1
20210802172647 69 239 21.0 7.0 0.00 2.29 0.57 75 1022.1
20210802172150 69 247 4.0 8.0 0.00 3.93 0.57 76 1022.1
20210802171646 69 196 0.0 8.0 0.00 3.93 0.57 76 1022.2
20210802171146 69 240 6.0 8.0 0.00 3.93 0.57 76 1022.2
20210802170642 69 233 6.0 8.0 0.00 3.93 0.57 76 1022.2
20210802170143 69 225 6.0 8.0 0.00 3.93 0.57 78 1022.2
20210802165641 69 215 5.0 9.0 0.00 3.93 0.57 79 1022.4
20210802165141 68 222 6.0 9.0 0.00 3.93 0.50 80 1022.4
20210802164640 68 226 5.0 8.0 0.00 3.93 0.50 82 1022.4
20210802164140 67 240 4.0 7.0 0.00 3.93 0.18 83 1022.5
20210802163638 67 158 0.0 7.0 0.00 3.93 0.18 83 1022.4
20210802163137 66 243 5.0 7.0 0.00 3.93 0.18 84 1022.5
20210802162637 66 122 0.0 8.0 0.00 3.93 0.18 85 1022.5
20210802162138 65 227 5.0 8.0 0.00 3.93 0.18 86 1022.5
20210802161639 65 246 0.0 6.0 0.00 3.93 0.18 85 1022.5
20210802161137 65 144 0.0 7.0 0.00 3.93 0.18 87 1022.6
20210802160634 65 171 3.0 8.0 0.00 3.93 0.18 88 1022.6
20210802160133 64 265 5.0 8.0 0.00 3.93 0.18 88 1022.7
20210802155631 64 227 0.0 7.0 0.00 3.93 0.18 89 1022.7
20210802155133 64 208 0.0 6.0 0.00 3.93 0.18 89 1022.7
20210802154623 63 208 0.0 6.0 0.00 3.93 0.18 91 1022.6
20210802154121 63 206 2.0 6.0 0.00 3.93 0.18 92 1022.7
20210802153617 62 12 0.0 3.0 0.00 3.93 0.18 93 1022.7
20210802153115 62 12 0.0 3.0 0.00 3.96 0.18 93 1022.7
20210802152610 61 12 0.0 3.0 0.00 3.96 0.18 93 1022.6
20210802152107 61 337 0.0 0.0 0.00 3.96 0.18 94 1022.7
20210802151600 60 337 0.0 0.0 0.00 3.96 0.18 95 1022.7
20210802151058 60 337 0.0 0.0 0.00 3.96 0.18 95 1022.6
20210802150600 60 337 0.0 0.0 0.00 3.96 0.18 95 1022.6
20210802150053 60 337 0.0 0.0 0.00 3.96 0.18 96 1022.7
20210802145529 59 337 0.0 2.0 0.00 3.96 0.18 96 1022.6
20210802145032 59 337 0.0 2.0 0.00 3.96 0.17 96 1022.6
20210802144525 59 337 0.0 0.0 0.00 3.96 0.17 97 1022.6
20210802144005 58 337 0.0 32.0 0.00 3.96 0.15 97 1022.6
20210802143456 58 337 0.0 32.0 0.00 3.96 0.15 97 1022.6
20210802142945 58 337 0.0 0.0 0.00 3.96 0.15 97 1022.6
20210802142440 58 337 0.0 0.0 0.00 3.96 0.15 97 1022.5
20210802141940 58 337 0.0 0.0 0.00 3.96 0.13 97 1022.5
20210802141436 58 337 0.0 0.0 0.00 3.96 0.13 96 1022.6
20210802140909 58 337 0.0 5.0 0.00 3.96 0.13 96 1022.6
20210802140353 58 337 0.0 5.0 0.00 3.96 0.13 96 1022.5
20210802135834 58 306 2.0 5.0 0.00 3.96 0.13 95 1022.5
20210802135336 58 61 0.0 0.0 0.00 3.96 0.13 95 1022.4
20210802134810 58 61 0.0 0.0 0.00 3.96 0.13 95 1022.4
20210802134307 58 61 0.0 0.0 0.00 3.96 0.13 95 1022.2
20210802133801 58 61 0.0 0.0 0.00 3.96 0.13 96 1022.4
20210802133254 58 61 0.0 0.0 0.00 3.96 0.13 95 1022.2
20210802132753 58 61 0.0 0.0 0.01 3.96 0.12 95 1022.4
20210802132252 58 61 0.0 0.0 0.01 3.96 0.12 95 1022.1
20210802131753 58 61 0.0 0.0 0.01 3.96 0.12 95 1022.1
20210802131240 58 61 0.0 0.0 0.01 3.96 0.12 96 1022.1
20210802130733 58 61 0.0 0.0 0.01 3.96 0.12 96 1022.0
20210802130223 58 61 0.0 0.0 0.01 3.96 0.12 95 1021.9
20210802125721 58 61 0.0 0.0 0.01 3.96 0.12 95 1021.8
20210802125221 58 61 0.0 0.0 0.01 3.96 0.12 95 1021.8
20210802124717 58 61 0.0 0.0 0.01 3.96 0.12 95 1021.8
20210802124208 58 61 0.0 64.0 0.01 3.96 0.12 95 1021.7
20210802123657 58 61 0.0 64.0 0.01 3.96 0.12 96 1021.7
20210802123131 58 61 0.0 7.0 0.01 3.96 0.12 96 1021.7
20210802122603 58 61 0.0 7.0 0.00 3.96 0.11 96 1021.5
20210802122056 58 61 0.0 7.0 0.00 3.96 0.11 97 1021.5
20210802121550 58 343 0.0 7.0 0.00 3.96 0.11 96 1021.5
20210802121050 58 343 0.0 7.0 0.00 3.96 0.11 96 1021.5
20210802120538 58 343 1.0 7.0 0.00 3.96 0.11 95 1021.7
20210802120016 58 315 0.0 4.0 0.00 3.96 0.11 95 1021.7
20210802115448 58 315 0.0 8.0 0.00 3.96 0.11 95 1021.7
20210802114941 58 327 0.0 8.0 0.00 3.96 0.11 94 1021.7
20210802114440 58 16 85.0 8.0 0.00 3.96 0.11 95 1021.7
20210802113936 58 19 1.0 8.0 0.00 3.96 0.11 95 1021.7
20210802113435 58 28 4.0 8.0 0.00 3.96 0.11 95 1021.5
20210802112937 58 358 2.0 6.0 0.00 3.96 0.11 95 1021.5
20210802112434 58 15 0.0 0.0 0.00 3.96 0.11 95 1021.5
20210802111923 58 15 0.0 0.0 0.00 3.96 0.11 95 1021.7
20210802111424 59 15 0.0 0.0 0.00 3.96 0.11 95 1021.5
20210802110915 59 15 0.0 0.0 0.00 3.96 0.10 95 1021.7
20210802110410 58 15 0.0 0.0 0.00 3.96 0.10 95 1021.7
20210802105908 59 15 0.0 0.0 0.00 3.96 0.10 96 1021.7
20210802105407 59 15 0.0 0.0 0.00 3.96 0.10 96 1021.5
20210802104902 59 15 0.0 0.0 0.00 3.96 0.10 97 1021.5
20210802104402 59 15 0.0 0.0 0.00 3.96 0.10 96 1021.5
20210802103900 59 15 0.0 0.0 0.00 3.96 0.10 96 1021.5
20210802103334 59 15 0.0 0.0 0.00 3.96 0.10 96 1021.5
20210802102811 59 15 0.0 3.0 0.00 4.16 0.10 96 1021.4
20210802102310 59 15 0.0 9.0 0.00 4.16 0.10 95 1021.4
20210802101758 59 15 1.0 9.0 0.00 4.16 0.10 95 1021.3
20210802101238 59 303 0.0 0.0 0.00 4.16 0.10 96 1021.4
20210802100737 59 303 0.0 0.0 0.00 4.16 0.10 96 1021.4
20210802100222 59 303 0.0 0.0 0.00 4.16 0.10 96 1021.4
20210802095653 59 303 0.0 0.0 0.00 4.16 0.10 96 1021.4
20210802095141 59 303 0.0 0.0 0.00 4.16 0.10 96 1021.4
20210802094632 59 303 0.0 0.0 0.00 4.16 0.10 97 1021.3